350  
ASUS41 KBGM 300410  
RWRBGM  
 
REGIONAL WEATHER ROUNDUP  
NATIONAL WEATHER SERVICE BINGHAMTON NY  
1200 AM EDT SUN APR 30 2017  
 
NOTE: "FAIR" INDICATES FEW OR NO CLOUDS BELOW 12,000 FEET WITH NO  
SIGNIFICANT WEATHER AND/OR S TO VISIBILITY
.  
 
* = STATION(S) THAT DOES NOT REPORT PRECIPITATION, SUCH AS RAIN,  
SNOW, ETC, ALSO NO THUNDER OR FOG.
 
 
NYZ009-015>018-022>025-036-037-044>046-055>057-062-300500   
..CENTRAL NEW YORK
 
 
 
CITY SKY/WX TMP DP RH WIND PRES REMARKS
 
BINGHAMTON MOCLDY 48 35 60 N6 30.22R  
CORTLAND FAIR 45 37 76 CALM 30.24R  
DANSVILLE CLEAR 48 42 80 CALM 30.24S  
ELMIRA CLOUDY 55 43 63 NE6 30.22R  
SENECA FALLS CLEAR 46 36 66 N7 30.26S  
ITHACA CLEAR 48 37 65 N8 30.24R  
HAMILTON CLEAR 45 34 65 N5 30.23R  
MONTICELLO CLEAR 55 43 62 NW8 30.17S  
NORWICH CLEAR 46 36 66 CALM 30.24S  
PENN YAN CLEAR 49 37 63 VRB5 30.24R  
ROME CLEAR 42 36 79 NW3 30.25R  
SIDNEY CLEAR 52 43 71 N8 30.22R  
SYRACUSE PTCLDY 46 34 62 W7 30.24S  

 
 
PAZ038>040-043-044-047-048-072-300500   
..NORTHEAST PENNSYLVANIA
 
 
 
CITY SKY/WX TMP DP RH WIND PRES REMARKS
 
HAZLETON PTCLDY 57 52 82 N3 30.21S  
SCRANTON PTCLDY 60 49 66 N7 30.17S  

 

 
KEY  
WCI = WIND CHILL INDEX  
VSB = VISIBILITY  
HX = HEAT INDEX  

 
 
 
CLICK HERE TO GO TO PREVIOUS BULLETINS.

The Nexlab NY Page
The Nexlab PA Page Main Text Page